Change the Weather History Date:

Friday, June 14, 2013

  Actual Average (KHUF) Record (KHUF)
Temperature  
Mean Temperature 68 °F 72 °F  
Max Temperature 81 °F 83 °F 94 °F (1991)
Min Temperature 56 °F 62 °F 44 °F (1959)
Degree Days  
Heating Degree Days 0 0  
Month to date heating degree days 11  
Since 1 June heating degree days 11  
Since 1 July heating degree days 5366  
Cooling Degree Days 3 8  
Month to date cooling degree days 87  
Year to date cooling degree days 173  
Since 1 June cooling degree days 87  
Growing Degree Days 18 (Base 50)    
Moisture  
Dew Point 55 °F    
Average Humidity 64    
Maximum Humidity 85    
Minimum Humidity 36    
Precipitation  
Precipitation 0.00 in 0.14 in 1.23 in (1958)
Month to date precipitation 2.51  
Year to date precipitation 20.95  
Sea Level Pressure  
Sea Level Pressure 30.06 in    
Wind  
Wind Speed 3 mph (NNE)    
Max Wind Speed 8 mph    
Max Gust Speed -    
Visibility 10 miles    
Events      
T = Trace of Precipitation, MM = Missing Value Source: NWS Daily Summary

Daily Weather History Graph

Daily Weather History Graph

Search for Another Location

Airport or City:

Trip Planner

Search our weather history database for the weather conditions in past years. The results will help you decide how hot, cold, wet, or windy it might be!

Date:

Astronomy

Jun. 14, 2013 Rise Set
Actual Time 5:22 AM CDT 8:20 PM CDT
Civil Twilight 4:49 AM CDT 8:52 PM CDT
Nautical Twilight 4:08 AM CDT 9:33 PM CDT
Astronomical Twilight 3:20 AM CDT 10:21 PM CDT
Moon 10:56 AM CDT (6/14) 11:56 PM CDT (6/14)
Length of Visible Light 16h 02m
Length of Day
14h 57m
Waxing Crescent, 30% of the Moon is Illuminated
Jun 14
Waxing Crescent
Jun 16
First Quarter
Jun 23
Full
Jun 29
Last Quarter
Jul 8
New

Hourly Weather History & Observations

Time (CDT) Temp. Heat Index Dew Point Humidity Pressure Visibility Wind Dir Wind Speed Gust Speed Precip Events Conditions
12:15 AM 62.6 °F - 55.9 °F 79% 30.02 in 10.0 mi NE 3.5 mph - N/A   Clear
12:35 AM 62.1 °F - 55.9 °F 80% 30.01 in 10.0 mi Calm Calm - N/A   Clear
12:55 AM 61.7 °F - 55.8 °F 81% 30.01 in 10.0 mi NNE 3.5 mph - N/A   Clear
1:15 AM 61.5 °F - 55.0 °F 79% 30.01 in 10.0 mi Calm Calm - N/A   Clear
1:35 AM 60.8 °F - 55.0 °F 81% 30.01 in 10.0 mi Calm Calm - N/A   Clear
1:55 AM 60.8 °F - 54.1 °F 79% 30.02 in 10.0 mi Calm Calm - N/A   Clear
2:15 AM 59.9 °F - 53.8 °F 80% 30.02 in 10.0 mi North 3.5 mph - N/A   Clear
2:35 AM 59.5 °F - 53.4 °F 80% 30.02 in 10.0 mi NNW 3.5 mph - N/A   Clear
2:55 AM 58.6 °F - 53.1 °F 82% 30.02 in 10.0 mi NNW 4.6 mph - N/A   Clear
3:15 AM 58.6 °F - 52.7 °F 81% 30.03 in 10.0 mi NNW 5.8 mph - N/A   Clear
3:35 AM 57.9 °F - 52.3 °F 82% 30.04 in 10.0 mi NNW 5.8 mph - N/A   Clear
3:55 AM 57.7 °F - 52.0 °F 81% 30.04 in 10.0 mi NNW 5.8 mph - N/A   Clear
4:15 AM 57.7 °F - 51.8 °F 81% 30.04 in 10.0 mi NNW 6.9 mph - N/A   Clear
4:35 AM 57.4 °F - 51.8 °F 82% 30.04 in 10.0 mi North 5.8 mph - N/A   Clear
4:55 AM 57.7 °F - 51.8 °F 81% 30.04 in 10.0 mi North 5.8 mph - N/A   Clear
5:15 AM 57.2 °F - 51.4 °F 81% 30.04 in 10.0 mi North 4.6 mph - N/A   Clear
5:35 AM 56.7 °F - 51.8 °F 84% 30.04 in 10.0 mi North 5.8 mph - N/A   Clear
5:55 AM 56.8 °F - 51.8 °F 83% 30.05 in 10.0 mi North 3.5 mph - N/A   Clear
6:15 AM 57.2 °F - 52.2 °F 83% 30.06 in 10.0 mi NW 3.5 mph - N/A   Clear
6:35 AM 57.9 °F - 52.7 °F 83% 30.07 in 10.0 mi NNW 4.6 mph - N/A   Clear
6:55 AM 59.0 °F - 53.1 °F 81% 30.07 in 10.0 mi NNW 6.9 mph - N/A   Clear
7:15 AM 60.3 °F - 53.4 °F 78% 30.08 in 10.0 mi North 8.1 mph - N/A   Clear
7:35 AM 61.2 °F - 53.8 °F 77% 30.08 in 10.0 mi North 6.9 mph - N/A   Clear
7:55 AM 62.1 °F - 54.1 °F 75% 30.09 in 10.0 mi North 4.6 mph - N/A   Clear
8:15 AM 63.7 °F - 55.2 °F 74% 30.09 in 10.0 mi NNE 8.1 mph - N/A   Clear
8:35 AM 64.8 °F - 55.4 °F 72% 30.10 in 10.0 mi North 4.6 mph - N/A   Clear
8:55 AM 66.0 °F - 55.8 °F 69% 30.11 in 10.0 mi North 4.6 mph - N/A   Clear
9:15 AM 67.1 °F - 56.3 °F 68% 30.12 in 10.0 mi North 5.8 mph - N/A   Clear
9:35 AM 68.2 °F - 56.7 °F 67% 30.12 in 10.0 mi NW 5.8 mph - N/A   Clear
9:55 AM 70.0 °F - 57.2 °F 64% 30.12 in 10.0 mi North 4.6 mph - N/A   Clear
10:15 AM 70.3 °F - 57.6 °F 64% 30.11 in 10.0 mi NNE 5.8 mph - N/A   Clear
10:35 AM 70.9 °F - 57.6 °F 63% 30.11 in 10.0 mi North 3.5 mph - N/A   Clear
10:55 AM 72.1 °F - 57.4 °F 60% 30.10 in 10.0 mi NNE 5.8 mph - N/A   Clear
11:15 AM 71.8 °F - 57.7 °F 61% 30.10 in 7.0 mi NE 4.6 mph - N/A   Clear
11:35 AM 74.3 °F - 56.8 °F 54% 30.10 in 10.0 mi North 3.5 mph - N/A   Clear
11:55 AM 74.7 °F - 57.4 °F 55% 30.08 in 10.0 mi NNE 5.8 mph - N/A   Clear
12:15 PM 75.9 °F - 55.6 °F 49% 30.08 in 10.0 mi Calm Calm - N/A   Clear
12:35 PM 75.9 °F - 55.9 °F 50% 30.07 in 10.0 mi ESE 6.9 mph - N/A   Clear
12:55 PM 76.8 °F - 55.0 °F 47% 30.09 in 10.0 mi Calm Calm - N/A   Clear
1:15 PM 77.4 °F - 54.3 °F 45% 30.08 in 10.0 mi East 4.6 mph - N/A   Clear
1:35 PM 78.4 °F - 53.8 °F 42% 30.08 in 10.0 mi North 3.5 mph - N/A   Clear
1:55 PM 78.8 °F - 53.4 °F 41% 30.08 in 10.0 mi NNE 3.5 mph - N/A   Clear
2:15 PM 79.2 °F - 53.4 °F 41% 30.08 in 10.0 mi West 3.5 mph - N/A   Clear
2:35 PM 79.5 °F - 52.7 °F 39% 30.08 in 10.0 mi NNE 4.6 mph - N/A   Clear
2:55 PM 79.7 °F - 51.4 °F 37% 30.08 in 10.0 mi West 3.5 mph - N/A   Clear
3:15 PM 79.9 °F - 51.4 °F 37% 30.07 in 7.0 mi East 4.6 mph - N/A   Clear
3:35 PM 80.8 °F - 51.3 °F 36% 30.07 in 10.0 mi North 3.5 mph - N/A   Clear
3:55 PM 80.6 °F - 52.5 °F 38% 30.07 in 10.0 mi Calm Calm - N/A   Clear
4:15 PM 80.8 °F - 52.5 °F 37% 30.06 in 10.0 mi Calm Calm - N/A   Clear
4:35 PM 80.6 °F - 52.9 °F 38% 30.05 in 10.0 mi Calm Calm - N/A   Clear
4:55 PM 80.8 °F - 52.7 °F 38% 30.05 in 10.0 mi East 3.5 mph - N/A   Clear
5:15 PM 80.2 °F - 52.3 °F 38% 30.04 in 10.0 mi Calm Calm - N/A   Clear
5:35 PM 80.6 °F 80.3 °F 53.4 °F 39% 30.03 in 10.0 mi ESE 4.6 mph - N/A   Clear
5:55 PM 80.6 °F 80.3 °F 53.6 °F 39% 30.03 in 10.0 mi ENE 6.9 mph - N/A   Clear
6:15 PM 79.9 °F - 53.6 °F 40% 30.02 in 10.0 mi ESE 5.8 mph - N/A   Clear
6:35 PM 79.3 °F - 52.9 °F 40% 30.01 in 10.0 mi East 4.6 mph - N/A   Clear
6:55 PM 79.2 °F - 55.2 °F 44% 30.01 in 10.0 mi East 6.9 mph - N/A   Clear
7:15 PM 77.9 °F - 57.2 °F 49% 30.01 in 10.0 mi East 6.9 mph - N/A   Clear
7:35 PM 76.5 °F - 57.0 °F 51% 30.01 in 10.0 mi ESE 5.8 mph - N/A   Clear
7:55 PM 75.6 °F - 57.9 °F 54% 30.02 in 10.0 mi East 5.8 mph - N/A   Clear
8:15 PM 74.3 °F - 58.5 °F 58% 30.02 in 10.0 mi East 3.5 mph - N/A   Clear
8:35 PM 73.6 °F - 58.1 °F 58% 30.03 in 10.0 mi Calm Calm - N/A   Clear
8:55 PM 72.1 °F - 59.0 °F 63% 30.04 in 10.0 mi Calm Calm - N/A   Clear
9:15 PM 70.7 °F - 59.2 °F 67% 30.03 in 10.0 mi Calm Calm - N/A   Clear
9:35 PM 69.6 °F - 59.9 °F 71% 30.04 in 10.0 mi Calm Calm - N/A   Clear
9:55 PM 68.2 °F - 59.9 °F 75% 30.05 in 10.0 mi Calm Calm - N/A   Clear
10:15 PM 68.2 °F - 59.4 °F 73% 30.05 in 10.0 mi Calm Calm - N/A   Clear
10:35 PM 67.5 °F - 60.1 °F 77% 30.07 in 10.0 mi Calm Calm - N/A   Clear
10:55 PM 66.2 °F - 60.1 °F 81% 30.06 in 10.0 mi Calm Calm - N/A   Clear
11:15 PM 66.2 °F - 61.0 °F 83% 30.06 in 10.0 mi Calm Calm - N/A   Clear
11:35 PM 65.3 °F - 60.8 °F 85% 30.06 in 10.0 mi Calm Calm - N/A   Clear
11:55 PM 64.9 °F - 60.3 °F 85% 30.05 in 10.0 mi Calm Calm - N/A   Clear